{"data":{"norad_id":55449,"intl_designator":"2023-015A","name":"STARLINK-5699","alt_names":[],"object_type":"PAYLOAD","status":"ACTIVE","operator":null,"country":"US","launch_date":"2023-02-02","launch_site_code":"AFETR","launch_vehicle":null,"mission":null,"orbit_class":"UNKNOWN","rcs_meters":null,"size_class":null,"mass_kg":null,"dimensions":null,"purposes":["comms"],"wikipedia_slug":null,"has_3d_model":false,"image_url":null,"decayed_at":null,"tle_current":{"epoch":"2026-05-25T04:00:03.998880Z","epoch_age_seconds":64612,"freshness":"FRESH","line1":"1 55449U 23015A   26145.16671295  .00032520  00000+0  11868-2 0  9990","line2":"2 55449  43.0003 257.1363 0001252 267.5403 126.7365 15.27560776  5745","mean_motion":15.27560776,"eccentricity":0.0001252,"inclination_deg":43.0003,"raan_deg":257.1363,"arg_perigee_deg":267.5403,"mean_anomaly_deg":126.7365,"bstar":0.0011868,"rev_number":574,"period_min":94.267935038939,"perigee_km":482.24763250888,"apogee_km":483.9656879214,"semimajor_km":6861.2436602151,"source":"CELESTRAK","updated_at":"2026-05-25T13:38:17.801923Z"}}}